GFSCGP_sfc_dewp_273.txt.gz
Dewpoint
22 13 13 15 18 18 18 18 17 17 18 16 15 18 20 20 16 17 18 17 17 17 21 24 25 27 28 30 31 33 37 40 42 43 41 41 41 43 46 49 49 50 53 53
16 11 15 20 21 20 19 18 16 15 15 14 15 17 18 21 16 17 17 17 17 17 19 22 25 27 26 28 29 31 35 37 39 40 42 45 46 47 47 48 51 54 56 56
14 14 21 20 19 19 17 17 14 13 14 15 17 13 15 17 17 13 11 14 16 17 18 20 23 25 25 27 29 30 34 36 37 38 41 44 46 47 48 50 51 51 50 52
17 21 19 18 17 18 12 15 14 14 11 10 14 6 9 11 10 11 9 10 11 16 19 20 21 22 24 27 28 29 32 34 35 37 39 40 42 43 46 48 49 47 46 46
13 18 19 15 17 19 15 16 14 14 11 10 15 8 7 8 8 9 7 7 9 14 19 20 21 23 25 26 28 29 30 32 33 35 37 39 40 45 46 47 44 43 41 41
20 22 21 19 20 20 17 14 13 13 13 -1 7 10 7 6 6 7 6 6 9 12 15 18 19 22 22 24 26 28 28 30 31 33 35 36 38 39 40 40 40 39 38 38
15 17 21 19 16 17 15 8 -0 2 -1 -2 11 11 9 7 10 7 6 6 11 12 13 15 16 18 20 22 24 26 26 27 29 30 31 33 35 35 36 36 35 35 35 34
6 3 16 20 14 9 14 6 2 -3 -3 2 8 7 11 9 8 4 5 5 11 11 13 15 17 18 19 21 23 25 25 25 27 28 28 29 30 31 32 32 33 32 33 32
4 7 20 18 17 15 14 11 13 -0 2 2 7 10 11 13 13 8 4 8 10 11 13 15 17 18 19 21 23 24 24 25 25 26 26 26 27 28 28 29 30 30 31 31
12 7 17 18 19 18 16 16 7 4 -5 -6 2 8 11 9 8 8 4 9 10 11 12 14 16 17 19 20 23 23 24 25 25 25 25 25 25 26 26 26 26 26 27 28
15 11 12 15 4 7 12 11 12 9 7 -2 -2 3 9 8 7 6 6 10 10 12 13 14 15 17 19 20 22 23 24 24 24 24 24 24 24 23 23 23 24 24 24 25
20 9 6 5 6 13 14 4 6 3 1 7 6 2 6 8 7 8 10 10 12 13 13 14 14 15 16 18 19 22 23 23 24 24 24 23 23 22 21 21 22 23 22 22
20 15 6 8 14 16 10 13 11 8 6 -3 0 8 5 5 7 9 8 10 11 13 12 10 10 11 11 16 18 21 22 23 24 24 23 22 22 21 21 21 21 22 21 20
22 13 8 9 7 -0 4 9 13 10 -5 -1 1 4 9 6 2 4 6 8 10 10 6 7 7 9 12 15 18 19 21 23 23 23 22 21 22 22 22 22 21 21 20 19
20 9 7 6 -5 0 3 10 10 7 0 5 1 -2 8 4 -1 -2 3 6 6 6 5 6 6 9 11 16 18 19 20 21 22 22 22 21 22 22 22 22 22 22 21 21
19 9 11 11 -2 -1 10 12 11 8 -1 1 -8 2 -1 -3 -9 -5 -1 2 2 2 4 7 10 11 14 16 17 17 19 20 21 20 20 21 21 21 21 21 21 21 21 21
16 13 6 4 5 6 -7 -2 3 -1 -4 5 6 9 -11 2 4 -3 -3 -3 -1 2 2 4 7 12 15 17 19 18 19 20 20 19 20 20 20 19 19 20 20 20 19 19
15 8 9 7 1 -10 -2 -9 -1 6 5 2 1 -2 -2 -1 -3 -4 -5 -4 -3 -2 3 7 10 13 14 17 17 17 17 17 18 18 18 18 18 18 18 17 18 18 19 19
16 12 5 6 7 8 3 5 11 12 11 6 6 -4 -7 -8 -4 2 -10 -8 -0 2 2 2 5 8 14 15 16 16 16 16 16 16 16 17 17 17 16 15 16 16 17 17
21 15 8 11 -2 -6 1 3 10 7 12 7 8 4 3 11 1 5 -6 -9 -5 -4 -1 3 8 11 13 14 15 14 14 14 14 14 14 15 15 15 14 14 14 14 15 14
17 17 9 11 7 8 7 13 15 5 13 6 9 8 12 10 7 -4 1 -5 -5 -1 1 5 5 6 7 10 13 12 12 12 13 13 13 13 13 13 12 12 12 12 12 12
11 10 8 11 10 2 14 17 10 11 3 5 8 10 12 1 -7 -5 -1 1 2 2 4 8 6 6 7 9 9 9 9 11 11 11 11 11 11 11 10 10 10 10 10 10
12 15 11 12 12 12 17 13 11 5 11 7 13 11 15 7 3 3 2 3 4 4 5 7 5 4 5 7 8 8 9 10 9 8 6 8 10 12 11 9 8 8 8 8
17 18 16 16 15 16 15 16 10 11 15 14 15 15 14 9 3 2 2 2 3 4 6 5 4 4 4 5 7 7 9 8 3 4 5 6 7 8 9 10 9 8 7 6
19 19 17 17 20 15 18 18 20 16 15 15 16 16 14 6 2 -0 2 2 2 3 5 4 4 3 3 4 5 5 6 4 5 5 6 7 7 7 8 9 8 8 7 7
21 19 18 17 19 16 12 19 20 18 18 17 16 15 14 6 2 1 1 2 2 4 4 4 4 3 2 3 3 2 2 3 4 6 6 5 6 6 7 7 8 15 15 15

GFSCGP_sfc_dewp_276.txt.gz
Dewpoint
22 17 14 14 17 17 18 20 19 17 16 16 14 16 15 19 18 15 15 14 16 17 19 21 23 25 25 26 30 32 33 36 37 40 43 43 40 41 43 46 46 46 47 49
18 13 15 19 20 19 17 18 18 15 16 15 15 15 20 20 18 15 13 11 13 16 19 20 23 24 25 27 29 31 32 34 37 37 39 42 45 47 47 47 46 48 53 54
16 15 20 18 17 19 19 18 16 15 15 14 16 18 15 20 17 14 12 12 12 14 17 19 22 24 26 27 28 29 31 33 35 36 38 40 44 46 47 47 48 49 49 51
18 21 19 17 16 19 21 16 16 16 16 13 18 15 12 13 13 14 11 11 12 13 16 18 20 22 25 26 28 30 31 32 33 35 37 38 39 42 44 45 48 48 46 45
17 17 18 20 16 18 22 17 15 14 18 17 16 15 10 11 10 11 8 9 11 14 15 18 21 24 26 27 28 29 28 31 32 33 35 37 38 42 45 46 46 44 42 41
21 21 21 20 19 19 18 19 13 15 18 15 13 13 8 9 13 11 9 8 10 13 13 16 21 24 25 26 26 26 27 28 29 31 32 34 36 38 39 40 41 41 38 37
16 17 21 18 20 17 22 20 20 18 17 16 14 11 12 13 12 13 11 10 13 13 13 14 18 21 22 22 23 24 25 26 27 29 30 31 34 35 35 36 37 36 34 34
21 22 19 19 20 18 17 17 17 12 13 11 8 11 15 11 15 15 13 12 12 12 13 15 16 18 19 21 23 24 25 25 26 27 28 29 30 32 33 33 34 33 32 32
21 23 19 18 17 18 18 17 14 13 9 8 11 11 14 13 16 17 13 10 11 12 13 15 17 18 20 21 23 24 24 24 25 25 26 26 27 28 29 30 30 30 30 30
20 23 16 17 19 18 17 17 17 15 12 13 12 11 15 13 15 14 12 12 12 12 12 14 16 18 20 21 23 23 24 25 25 25 25 24 24 26 27 26 26 27 27 28
20 20 17 17 19 19 18 17 14 15 13 13 11 18 16 14 14 12 11 12 12 13 13 15 16 18 20 22 23 24 24 24 24 24 24 23 23 23 24 24 24 25 25 26
21 21 21 17 15 15 17 18 18 18 13 13 12 13 17 13 13 12 12 11 12 13 14 15 16 18 18 20 21 23 23 23 24 24 23 23 23 23 22 22 23 23 23 24
25 21 22 21 18 17 18 17 16 15 13 13 14 21 15 12 12 12 11 11 12 12 13 14 15 16 17 19 20 22 22 23 24 24 23 23 23 22 22 22 22 21 21 21
25 20 20 22 21 17 16 16 16 15 16 15 15 18 19 17 13 11 10 10 11 12 12 13 14 16 17 20 20 21 21 22 24 23 23 22 23 23 23 23 22 22 22 20
24 20 16 18 11 11 15 14 16 14 14 17 16 9 17 16 12 9 8 10 10 10 11 12 14 16 18 19 19 21 21 22 23 22 22 21 22 23 23 23 23 23 23 23
21 20 16 16 7 8 14 16 16 15 13 10 11 11 17 10 6 9 8 8 9 10 11 12 13 16 17 19 20 21 21 22 23 22 22 23 22 22 22 22 22 22 22 22
22 21 17 20 12 12 16 12 14 14 13 16 17 24 13 16 15 14 12 8 8 9 11 12 14 15 17 18 20 19 21 22 21 21 20 20 20 20 21 20 21 21 21 20
19 18 18 19 15 13 22 7 12 17 17 14 14 14 17 18 15 14 12 13 11 10 12 12 14 16 18 20 20 18 19 19 19 19 19 19 19 19 19 19 20 20 20 20
20 20 18 17 18 22 12 14 17 19 27 18 18 15 14 11 11 16 13 11 11 10 10 11 11 12 17 17 18 18 18 17 17 18 18 18 18 18 17 18 18 19 18 18
20 19 19 17 17 15 30 15 16 18 27 18 20 16 13 13 15 23 12 11 9 8 8 10 12 14 15 17 16 15 16 15 15 16 16 17 17 16 16 16 16 17 17 16
18 18 17 17 19 23 24 17 16 17 34 17 21 19 16 17 24 19 13 10 12 10 9 11 11 12 13 14 16 14 14 14 14 14 14 13 13 14 13 14 14 14 14 15
17 16 15 16 17 17 19 17 21 33 16 19 22 19 20 19 9 9 12 11 9 9 8 11 8 8 9 11 11 11 10 12 12 12 12 13 14 11 13 15 14 14 15 14
17 20 20 20 24 26 23 29 26 18 24 19 21 20 21 12 7 5 3 4 4 4 3 6 6 5 7 10 10 10 11 12 12 12 12 13 13 13 13 14 13 12 13 13
18 18 19 21 26 23 23 24 22 20 21 17 17 17 17 11 6 1 -1 -1 0 3 3 7 7 6 6 8 8 9 11 12 11 12 11 11 12 12 12 11 11 13 13 12
20 19 19 22 24 25 24 21 24 23 19 17 16 17 17 13 8 -1 -1 2 1 2 5 8 8 7 7 7 8 11 12 11 11 12 11 12 12 13 12 11 12 9 9 11
21 20 19 21 26 22 16 20 21 21 19 18 17 17 18 15 7 3 2 2 3 5 7 8 8 7 8 9 10 11 11 10 11 11 11 11 11 11 11 11 12 15 14 15

GFSCGP_sfc_dewp_279.txt.gz
Dewpoint
23 20 18 14 16 17 17 20 19 18 17 17 17 18 16 17 16 19 17 16 14 14 16 19 21 23 25 25 26 28 30 33 35 36 39 40 43 42 41 43 45 43 46 49
20 17 16 18 19 19 18 18 19 17 17 18 17 16 19 18 18 19 16 14 14 14 16 19 21 22 25 26 26 27 29 32 35 37 37 39 41 42 45 44 45 43 46 51
18 17 19 18 17 18 20 19 18 17 18 17 16 17 19 19 19 17 15 14 13 14 15 18 19 22 25 26 28 27 28 31 36 36 37 38 41 43 44 45 44 46 48 49
18 21 19 17 17 18 24 17 17 18 19 17 19 17 15 14 17 16 15 12 13 14 15 16 18 20 23 24 27 29 31 33 36 37 35 36 37 40 43 44 46 48 47 45
20 17 18 23 18 18 26 20 18 17 19 19 17 17 14 13 11 12 11 12 12 14 16 17 18 21 22 25 27 28 30 32 34 35 33 35 37 40 42 43 44 45 44 42
21 22 21 22 19 19 20 22 19 17 20 18 19 13 12 13 18 12 13 12 12 15 14 15 17 20 23 25 27 27 28 30 32 33 31 33 35 36 39 41 41 42 40 39
18 18 21 19 21 19 24 26 25 23 22 21 15 13 15 16 13 16 16 14 15 15 14 14 15 17 19 21 24 27 28 28 30 30 30 30 32 34 36 37 38 37 36 35
26 27 21 23 23 23 18 23 21 15 17 16 12 13 19 18 18 21 19 16 13 13 13 15 16 17 18 21 24 26 26 27 28 27 27 29 30 32 33 33 34 34 32 32
26 27 19 22 20 20 21 22 18 18 15 13 16 16 15 14 18 24 18 12 13 13 14 15 16 18 19 21 24 26 24 25 25 25 26 26 27 28 29 30 31 31 31 30
27 27 17 18 20 19 19 19 20 19 16 14 16 18 19 17 18 17 16 14 13 13 14 15 16 17 19 21 23 25 25 25 26 25 25 25 25 26 26 27 27 28 28 28
24 25 21 18 22 24 19 18 18 18 17 17 15 21 21 16 17 16 15 14 14 14 15 16 17 18 20 22 23 25 25 24 24 24 24 23 23 24 24 24 25 25 26 26
23 27 25 30 22 18 18 25 23 21 17 17 16 16 21 17 17 16 15 14 14 15 16 16 16 19 20 20 22 23 23 23 24 24 24 24 23 23 22 22 23 24 24 25
27 23 24 27 21 16 20 20 20 19 18 18 17 22 19 17 17 17 14 14 14 15 14 16 16 18 18 21 22 22 22 23 24 24 24 23 23 22 22 22 22 22 22 22
25 24 24 23 25 21 20 20 18 19 19 20 18 22 23 22 19 17 14 13 13 13 13 14 16 17 19 20 21 21 22 23 23 23 23 22 23 23 23 23 23 22 22 21
24 23 20 22 22 16 18 20 18 17 20 18 21 14 20 22 18 15 12 13 13 12 13 14 15 17 18 20 21 22 23 23 24 22 22 22 23 23 23 23 23 24 23 23
24 23 18 18 14 12 14 18 18 18 19 18 16 16 23 17 14 13 14 12 12 12 13 14 14 16 18 20 21 22 23 23 23 22 22 24 24 23 23 23 23 23 23 23
24 23 21 22 16 16 20 16 17 18 19 18 17 30 20 19 19 19 17 14 14 14 14 14 16 16 19 21 23 22 22 23 23 22 22 22 22 22 22 22 22 22 22 22
22 21 22 21 21 19 26 15 19 18 20 19 22 21 21 22 20 19 18 18 15 14 14 16 17 18 21 21 22 20 19 20 20 20 20 20 20 20 20 21 21 22 22 21
23 23 21 19 22 27 21 16 18 18 27 22 20 23 21 18 18 21 19 17 17 16 15 15 14 15 18 19 20 19 19 19 19 19 19 20 20 19 19 19 20 21 21 20
21 21 21 20 18 20 34 21 21 24 28 26 23 22 19 16 20 32 19 17 15 14 13 13 15 16 17 18 17 16 16 16 16 17 17 18 18 18 18 18 19 19 18 16
18 19 18 18 21 27 30 18 18 22 33 25 26 24 20 17 30 30 19 17 16 13 12 13 14 16 17 17 18 16 16 16 15 15 14 15 15 16 15 15 16 16 16 16
19 19 18 20 20 21 24 17 22 36 24 26 28 25 23 28 17 17 16 15 15 13 12 13 11 11 12 13 13 12 11 13 13 13 14 15 16 13 15 17 16 17 18 17
18 23 24 22 26 32 26 31 32 26 32 26 28 26 25 22 11 11 9 8 7 7 6 10 7 7 9 13 13 12 13 13 15 15 13 15 16 16 17 17 16 15 17 16
20 20 18 22 31 27 28 27 29 26 25 23 22 22 22 16 5 3 1 1 2 4 5 8 9 9 9 11 11 12 13 14 13 14 14 14 14 14 15 13 14 16 16 15
22 18 20 22 24 26 28 27 26 27 25 21 18 20 21 16 5 1 1 2 2 3 5 9 10 10 10 11 11 14 14 14 13 14 14 14 14 14 14 14 14 13 15 15
21 20 17 19 26 25 23 23 25 24 23 21 19 19 21 19 12 5 5 4 4 6 8 10 11 10 11 12 12 14 14 13 13 13 13 13 14 13 14 14 14 15 15 14

GFSCGP_sfc_dewp_282.txt.gz
Dewpoint
28 22 22 20 21 19 18 19 19 19 19 18 18 19 19 20 18 16 19 18 16 16 17 18 19 22 22 24 25 27 28 27 31 35 37 36 38 40 42 45 45 46 47 47
23 20 20 22 21 21 20 19 19 20 18 18 19 18 20 20 18 17 18 15 14 15 17 18 20 21 22 23 24 26 28 30 31 34 37 37 38 40 41 43 46 45 47 50
21 21 19 18 19 20 20 20 20 17 19 19 18 18 20 19 19 18 16 17 14 15 15 17 18 21 22 23 24 27 29 31 33 36 37 36 38 40 42 44 46 47 48 49
20 22 20 19 19 20 21 20 19 20 18 16 19 11 17 17 17 17 16 16 15 15 15 16 17 19 21 23 26 28 30 33 34 35 36 36 36 37 40 43 47 47 44 44
23 20 20 22 21 21 21 22 20 20 17 19 18 9 16 14 13 13 15 13 14 15 17 18 18 20 21 23 26 28 29 31 33 34 35 36 37 38 39 42 43 44 43 41
24 24 23 25 21 21 21 23 24 20 19 9 16 13 14 12 15 14 13 15 16 16 16 15 17 19 20 21 24 27 29 28 30 30 33 34 35 35 37 39 40 41 40 39
21 22 23 21 21 21 22 22 15 13 11 13 17 13 14 17 15 18 16 17 17 17 15 15 16 17 18 20 23 24 26 27 29 29 30 32 33 33 34 35 37 36 35 34
26 23 22 25 22 20 18 19 13 3 8 10 15 8 17 17 17 17 19 14 17 14 15 16 16 19 19 20 22 23 26 25 27 28 29 30 31 31 32 32 33 32 32 31
25 24 21 23 23 20 20 19 18 10 9 9 14 17 16 16 16 17 15 17 15 15 16 17 19 19 18 20 22 24 25 25 26 26 27 27 28 27 28 29 29 29 30 30
27 20 20 19 22 20 19 19 15 16 3 2 14 15 18 13 13 16 13 14 14 15 16 18 17 17 19 21 22 24 25 24 25 26 26 25 24 25 26 26 26 27 27 28
26 23 20 19 15 16 17 17 18 16 14 6 7 12 13 11 10 10 12 15 12 13 17 17 16 17 19 20 22 23 23 23 24 25 25 24 23 23 24 24 24 25 25 25
25 25 20 20 17 18 18 17 19 11 8 11 9 11 15 10 9 11 14 16 14 16 13 13 14 13 14 19 21 21 22 22 24 25 24 23 23 22 22 22 22 23 23 24
27 23 18 23 20 16 15 19 19 15 14 9 7 14 13 10 11 13 8 10 13 14 13 9 8 7 10 13 18 20 21 22 23 23 23 23 23 22 22 22 22 22 22 23
26 25 18 16 15 14 11 16 19 16 8 9 12 13 16 11 12 9 9 9 8 10 8 7 9 12 12 13 20 20 20 23 23 23 22 22 22 23 23 23 23 23 23 22
25 21 15 14 15 10 8 9 16 15 9 11 7 7 16 17 9 5 4 4 6 5 9 8 7 12 17 18 19 19 20 22 23 22 22 22 23 23 23 23 23 24 24 23
25 20 15 10 7 4 4 11 14 16 10 14 15 14 11 6 4 3 3 3 3 3 4 7 9 15 16 18 18 21 21 21 22 22 22 23 23 23 22 23 23 23 22 22
25 21 15 10 10 13 10 7 11 8 8 10 7 13 9 8 7 8 6 4 4 4 4 5 10 12 15 20 23 21 22 22 21 21 21 21 21 21 21 21 21 21 20 21
24 18 17 11 11 8 15 4 9 8 8 16 13 11 9 9 9 9 8 8 5 4 5 9 13 14 17 20 21 21 22 20 20 20 20 20 20 20 21 20 20 21 21 20
26 23 13 6 5 17 18 8 8 7 2 16 16 10 11 8 10 11 9 8 9 7 6 6 5 6 16 14 18 19 19 19 19 19 19 19 20 20 20 20 20 21 21 20
23 22 16 17 3 7 20 13 18 14 14 15 14 13 11 16 14 19 13 11 9 10 8 8 9 12 14 13 17 17 17 16 16 17 18 18 18 19 18 18 18 19 18 18
18 19 12 8 7 15 20 18 19 8 11 14 16 13 16 12 18 17 14 11 10 10 10 9 9 8 10 12 15 15 14 14 16 16 16 16 16 16 16 16 16 17 17 17
18 15 12 13 9 8 18 17 13 27 14 13 16 17 16 11 8 10 11 11 11 9 9 13 12 13 14 15 15 14 13 14 14 14 15 14 12 15 16 10 14 14 13 13
19 21 20 20 18 23 20 19 18 15 20 17 21 19 20 15 11 13 12 13 12 10 9 13 11 11 12 14 14 13 13 13 12 10 7 8 11 16 15 10 11 11 10 10
25 21 19 19 21 23 24 24 22 21 21 25 25 24 24 21 9 10 9 9 9 8 8 11 10 9 10 12 13 12 13 13 7 5 7 9 9 11 11 16 16 12 10 10
25 20 20 21 22 22 25 26 25 24 21 21 20 23 23 19 8 6 6 6 5 5 7 10 10 9 9 11 11 9 11 9 9 8 10 10 10 8 10 13 11 13 14 13
21 21 20 23 23 21 20 24 25 25 25 23 20 19 22 21 10 6 5 4 4 6 8 9 10 9 9 9 8 7 9 8 8 10 10 10 11 9 10 9 9 16 17 16

GFSCGP_sfc_dewp_285.txt.gz
Dewpoint
27 22 21 19 21 20 17 16 15 18 20 17 18 19 18 21 21 19 18 18 17 15 16 18 19 21 22 23 23 25 27 27 30 30 32 34 36 34 38 40 42 44 47 47
22 20 20 23 22 20 19 18 18 19 20 19 18 18 20 20 20 17 18 16 14 14 16 17 19 20 22 22 23 25 27 28 30 30 32 35 36 35 37 39 41 43 47 48
21 23 20 19 19 19 19 18 18 18 20 20 18 16 19 19 19 17 17 16 14 14 14 16 18 18 21 22 23 25 27 29 30 31 33 34 36 36 37 42 45 47 46 47
22 23 20 19 18 19 18 21 20 19 15 12 18 9 15 17 17 18 17 16 14 15 15 16 17 18 20 21 24 26 28 29 28 30 32 31 33 34 37 40 44 45 43 41
18 20 20 22 20 21 18 21 19 20 13 12 16 5 13 16 14 16 17 16 15 17 17 17 17 20 20 21 23 25 26 28 27 29 29 31 32 35 38 39 43 43 41 39
24 24 23 24 21 21 21 23 23 20 18 10 11 11 13 12 13 14 13 16 18 18 17 16 17 19 20 20 22 23 23 25 27 27 28 29 31 33 34 37 39 39 38 37
25 22 23 22 21 21 21 18 3 2 12 5 17 13 14 17 18 15 14 16 16 17 16 15 16 18 20 19 20 22 23 25 26 27 27 28 30 31 34 34 35 34 34 33
22 21 22 26 23 21 18 15 5 -10 0 6 15 7 14 16 13 10 13 12 17 14 15 16 18 18 18 18 20 22 23 23 25 26 27 28 29 29 32 32 32 32 31 31
22 23 22 23 23 22 21 17 18 4 3 10 9 14 19 16 14 12 10 17 15 13 15 16 17 16 18 19 20 22 23 23 24 25 26 27 27 27 28 29 29 29 29 30
26 13 21 19 24 20 20 19 12 10 -1 -3 7 11 14 12 10 12 10 13 13 14 16 16 15 17 18 19 20 22 22 23 24 25 25 25 25 26 26 26 26 26 27 27
25 21 20 20 15 15 16 15 17 15 11 1 4 7 12 11 7 9 11 15 10 11 14 14 14 16 15 15 17 19 20 20 22 24 24 24 24 24 24 24 24 25 25 25
25 24 22 20 18 20 19 11 13 6 2 4 6 10 8 7 5 8 13 17 12 15 13 12 14 10 9 11 12 15 20 20 20 22 23 23 23 23 22 22 23 24 24 24
27 23 18 19 20 17 12 17 16 12 10 4 4 8 8 5 9 12 11 6 11 13 11 9 11 9 7 11 14 16 18 20 21 23 23 23 23 22 22 22 23 23 23 24
26 25 20 16 14 13 9 12 17 15 1 0 9 9 14 9 7 6 7 7 4 4 3 2 5 7 12 13 18 16 16 20 20 21 22 22 23 23 23 23 23 24 24 23
25 21 18 18 17 6 7 7 15 14 6 10 3 4 15 17 10 4 1 -0 3 1 2 2 3 7 13 15 16 14 16 19 20 21 22 22 23 23 23 23 23 24 24 25
25 21 18 14 8 3 6 9 12 15 5 11 14 14 11 3 -3 1 1 -2 -1 -1 -1 0 2 5 12 14 16 15 17 19 19 19 20 22 22 22 22 23 22 22 22 22
25 22 17 8 10 11 5 4 7 5 3 8 6 11 1 6 3 3 2 1 1 -1 -1 1 3 9 11 18 21 18 18 18 20 20 20 21 22 21 22 22 22 20 20 21
25 22 20 12 12 5 7 -2 4 6 5 12 9 5 7 7 5 4 0 6 4 2 2 3 6 12 12 18 18 22 20 20 20 20 20 20 20 20 20 20 20 20 20 19
27 25 18 9 2 11 15 7 8 7 0 11 15 10 4 3 6 11 5 4 7 6 7 7 4 4 12 12 16 19 19 19 19 19 20 20 20 20 20 20 19 20 20 20
26 24 19 15 7 -0 9 11 12 8 6 8 10 8 8 15 12 16 7 7 5 8 7 9 9 10 12 10 16 16 16 16 17 18 18 18 19 18 17 17 18 18 18 18
18 18 14 9 5 9 14 17 20 -0 6 7 7 5 15 13 17 14 10 7 8 9 9 8 8 9 10 11 14 14 13 13 15 16 16 16 16 16 16 16 16 17 17 17
18 16 13 10 5 6 16 17 7 16 12 8 7 10 14 5 4 7 11 10 10 9 10 13 12 13 13 15 16 14 12 15 14 14 14 12 11 16 14 10 13 12 12 11
20 24 20 18 16 20 18 18 18 14 16 14 17 16 17 14 12 13 13 13 13 12 11 13 12 12 14 14 15 13 13 13 11 9 7 6 11 15 14 10 11 11 9 9
26 28 24 21 23 23 25 25 21 21 20 22 23 24 21 18 13 14 14 14 13 12 11 12 12 11 11 12 14 13 13 12 7 5 7 8 8 10 9 15 14 11 8 8
26 26 23 22 23 24 24 23 24 24 22 22 22 23 24 22 14 13 13 14 13 11 10 10 11 10 10 11 12 9 11 9 8 7 8 9 9 9 10 12 12 13 13 13
22 23 22 22 26 24 24 22 26 25 24 24 22 20 23 24 21 11 11 13 11 9 8 9 10 9 9 9 10 8 9 9 8 9 8 9 10 9 9 9 9 17 17 17

GFSCGP_sfc_dewp_291.txt.gz
Dewpoint
26 20 17 16 20 18 16 17 15 15 19 18 17 18 18 20 20 20 19 18 18 18 16 17 19 20 21 21 21 23 25 26 27 28 28 30 29 29 32 33 35 35 36 39
21 20 21 23 22 21 18 18 17 17 20 18 18 17 18 19 19 20 20 20 20 16 16 17 18 18 19 21 21 22 24 26 27 29 29 30 29 31 30 31 32 35 39 43
19 19 23 21 19 19 18 17 15 14 19 16 17 15 16 18 19 17 18 19 17 16 15 15 17 18 19 19 20 22 24 26 27 28 29 28 29 28 29 31 32 36 38 40
21 23 21 21 19 19 18 21 19 18 15 10 18 9 14 16 18 18 17 15 15 14 15 16 17 17 17 19 21 22 23 23 24 27 27 26 26 25 27 29 32 34 37 40
14 22 21 21 20 20 18 21 18 20 16 12 16 7 13 15 13 15 18 17 15 15 18 17 17 19 19 20 20 21 21 22 24 26 26 26 24 26 28 28 29 33 38 39
22 24 22 21 21 21 22 23 19 20 16 7 12 10 12 12 13 14 14 17 15 18 19 17 16 18 19 19 19 20 20 22 23 25 25 25 24 25 26 26 28 33 37 37
24 22 22 25 22 22 25 21 12 5 3 7 14 12 15 14 15 14 13 15 15 19 17 15 15 17 17 16 18 19 20 21 23 23 23 24 25 26 25 25 28 31 32 34
19 18 23 28 27 24 21 18 13 -5 0 4 14 8 13 14 11 6 11 8 17 18 15 15 17 16 16 16 17 19 20 21 21 21 22 23 24 26 25 27 28 29 32 32
21 21 24 24 26 23 22 21 16 4 3 5 6 9 12 17 14 10 11 15 16 16 15 15 17 15 15 16 17 19 19 20 20 20 22 21 23 23 24 25 27 29 30 31
27 20 24 25 25 21 22 20 11 10 -3 -5 5 4 8 9 10 12 10 15 15 15 14 15 15 15 15 16 16 17 18 15 15 18 21 22 21 22 22 23 25 26 27 27
25 23 23 26 21 21 18 16 17 14 7 -2 -1 7 10 9 9 10 14 16 12 12 11 13 13 14 12 11 10 12 13 11 15 17 19 20 19 20 20 23 25 25 25 25
29 25 20 24 24 23 19 11 14 7 0 -2 3 10 6 6 1 4 13 16 13 12 10 10 11 8 7 7 8 9 9 10 15 17 18 20 20 17 15 20 24 25 25 26
28 24 18 21 22 22 17 17 13 10 9 6 4 10 5 1 9 13 12 10 11 13 10 6 3 4 4 7 7 7 8 12 15 13 15 18 19 18 17 20 24 25 24 24
31 24 22 20 21 17 7 11 16 14 2 -1 7 8 15 15 9 16 10 9 3 3 3 -2 2 2 4 6 7 7 8 10 11 12 14 15 18 19 21 22 24 25 25 24
28 20 23 23 25 22 14 14 14 13 6 9 2 4 12 14 14 11 -0 1 3 4 2 -0 -1 -1 2 6 7 6 7 7 7 10 14 16 18 18 20 21 22 24 25 25
27 20 22 19 20 13 9 11 13 16 5 7 9 14 17 6 -7 2 7 -1 2 -0 1 1 -3 -1 5 6 6 8 8 10 11 13 13 14 18 20 20 21 22 22 23 24
24 21 20 16 17 15 10 8 6 4 1 12 9 13 -6 9 5 5 7 -1 5 3 0 1 3 4 6 10 17 10 11 16 19 19 20 20 18 19 20 21 22 21 21 22
21 20 21 16 17 4 12 -3 2 6 4 9 9 10 4 7 7 6 7 4 6 3 1 3 4 11 11 15 15 20 20 19 18 18 20 21 21 20 20 19 19 19 20 20
26 22 15 14 11 14 13 9 6 6 2 5 10 14 7 -2 4 14 1 7 7 5 6 6 6 5 9 10 13 16 15 16 17 15 17 19 21 21 20 20 20 20 19 19
26 24 20 15 10 3 13 12 11 5 6 3 4 6 2 15 10 16 5 -1 6 3 3 7 8 8 10 11 13 17 16 16 14 16 17 17 17 18 18 19 20 21 20 19
12 16 15 16 14 13 17 16 15 2 8 4 3 5 8 13 17 11 5 4 4 7 8 6 8 9 11 10 12 14 12 12 14 16 16 16 16 15 15 15 15 16 15 15
12 13 13 15 12 7 17 17 12 18 15 12 6 7 10 13 12 6 6 8 10 9 9 13 11 11 12 14 15 15 13 13 14 14 13 12 10 14 14 8 11 11 10 9
18 19 16 18 20 24 21 21 20 15 19 21 16 16 15 17 15 16 15 14 14 13 12 14 13 13 13 14 14 13 13 12 10 9 6 5 7 13 13 7 9 9 7 8
20 23 22 23 27 27 29 27 22 23 23 24 21 21 20 20 20 18 17 16 15 15 14 14 13 13 13 13 14 15 12 11 7 7 7 6 6 9 8 13 13 10 7 7
22 25 23 24 26 27 27 27 27 26 23 24 24 23 22 22 22 21 19 17 16 16 15 14 14 14 14 12 12 11 11 9 9 8 8 8 9 7 9 11 11 12 11 11
23 23 24 22 24 25 23 24 26 28 28 28 28 27 25 23 23 22 21 19 17 16 16 14 14 14 14 11 11 10 9 9 8 9 9 8 9 8 8 7 8 15 18 19